period_start,C,m1,H,J0,J1,J2,J3,J4,J5,JA,JB,JC,JD,JJ,JK,JN,#
2015-11-02 00:00:05,0.05,3.23,0.00,19.99,24.77,28.58,14.49,46.44,1003.92,2042.74,2488.91,2422.95,2654.10,600.06,594.69,39.35,0000 0000 0000 0000 000000
2015-11-02 00:05:06,0.15,3.23,0.00,19.99,24.77,28.60,14.55,46.58,1003.92,2042.79,2487.46,2421.72,2652.88,599.82,594.50,39.40,0000 0000 0000 0000 000000
2015-11-02 00:10:07,0.10,3.24,0.00,19.98,24.76,28.61,14.58,46.43,1003.92,2042.83,2485.88,2420.58,2651.67,599.76,594.40,39.45,0000 0000 0000 0000 000000
2015-11-02 00:15:07,0.05,3.25,0.00,19.98,24.75,28.59,14.67,46.86,1003.92,2042.94,2484.95,2419.85,2650.86,600.64,595.30,39.50,0000 0000 0000 0000 000000
2015-11-02 00:20:08,0.14,3.25,0.00,19.99,24.75,28.56,14.43,46.23,1003.92,2042.90,2483.43,2418.46,2649.40,599.74,594.17,39.55,0000 0000 0000 0000 000000
2015-11-02 00:25:09,0.17,3.26,0.00,19.99,24.75,28.55,14.52,46.41,1003.92,2042.85,2481.25,2416.61,2647.46,600.12,594.78,39.60,0000 0000 0000 0000 000000
2015-11-02 00:30:11,0.16,3.27,0.00,19.97,24.75,28.60,14.63,46.45,1003.92,2042.82,2479.05,2414.79,2645.58,600.52,595.18,39.65,0000 0000 0000 0000 000000
2015-11-02 00:35:12,0.18,3.28,0.00,19.98,24.75,28.58,14.54,46.54,1003.94,2042.88,2476.91,2412.93,2643.61,599.73,594.36,39.71,0000 0000 0000 0000 000000
2015-11-02 00:40:13,0.14,3.29,0.00,19.98,24.75,28.58,14.58,46.61,1003.93,2042.88,2474.98,2411.15,2641.75,600.17,594.88,39.76,0000 0000 0000 0000 000000
2015-11-02 00:45:15,0.14,3.29,0.00,19.97,24.74,28.54,14.55,46.48,1003.94,2042.89,2473.33,2409.72,2640.26,599.55,594.24,39.81,0000 0000 0000 0000 000000
2015-11-02 00:50:16,0.13,3.30,0.00,19.97,24.73,28.55,14.59,46.55,1003.93,2042.87,2471.46,2408.23,2638.64,600.62,595.29,39.86,0000 0000 0000 0000 000000
2015-11-02 00:55:17,0.15,3.31,0.00,19.98,24.72,28.58,14.61,46.58,1003.93,2042.83,2469.54,2406.67,2637.00,600.02,594.72,39.91,0000 0000 0000 0000 000000
2015-11-02 01:00:18,0.12,3.31,0.00,19.99,24.72,28.58,14.53,46.46,1003.93,2042.96,2467.87,2405.37,2635.63,599.69,594.48,39.96,0000 0000 0000 0000 000000
2015-11-02 01:05:19,0.10,3.32,0.00,19.99,24.72,28.59,14.59,46.58,1003.95,2042.95,2466.51,2404.16,2634.35,599.62,594.40,40.01,0000 0000 0000 0000 000000
2015-11-02 01:10:20,0.09,3.33,0.00,19.99,24.72,28.58,14.61,46.58,1003.98,2042.96,2465.21,2403.03,2633.13,600.14,594.81,40.06,0000 0000 0000 0000 000000
2015-11-02 01:15:22,0.09,3.33,0.00,20.01,24.72,28.58,14.52,46.52,1004.08,2042.96,2463.97,2402.01,2632.07,600.14,594.72,40.11,0000 0000 0000 0000 000000
2015-11-02 01:20:23,0.07,3.34,0.00,20.01,24.71,28.58,14.56,46.67,1003.99,2042.97,2463.03,2401.10,2631.11,600.25,595.01,40.16,0000 0000 0000 0000 000000
2015-11-02 01:25:24,0.09,3.34,0.00,20.01,24.70,28.61,14.52,46.55,1003.99,2042.96,2461.99,2400.22,2630.17,600.08,594.74,40.21,0000 0000 0000 0000 000000
2015-11-02 01:30:25,0.10,3.34,0.00,20.00,24.70,28.57,14.63,46.62,1004.09,2042.96,2460.62,2399.34,2629.20,600.42,595.12,40.26,0000 0000 0000 0000 000000
2015-11-02 01:35:26,0.07,3.35,0.00,20.01,24.70,28.53,14.57,46.55,1004.06,2042.95,2459.78,2398.42,2628.32,600.12,594.75,40.31,0000 0000 0000 0000 000000
2015-11-02 01:40:28,0.07,3.35,0.00,20.00,24.70,28.55,14.53,46.44,1004.11,2042.97,2458.83,2397.71,2627.52,599.97,594.70,40.36,0000 0000 0000 0000 000000
2015-11-02 01:45:29,0.06,3.35,0.00,19.99,24.70,28.55,14.58,46.52,1004.02,2042.97,2457.80,2396.96,2626.68,600.42,595.03,40.41,0000 0000 0000 0000 000000
2015-11-02 01:50:31,0.06,3.36,0.00,19.99,24.70,28.47,14.48,46.42,1003.93,2042.95,2456.96,2396.14,2625.98,599.66,594.31,40.46,0000 0000 0000 0000 000000
2015-11-02 01:55:32,0.07,3.36,0.00,19.99,24.70,28.57,14.64,46.70,1003.97,2042.95,2456.07,2395.58,2625.19,600.48,595.21,40.51,0000 0000 0000 0000 000000
2015-11-02 02:00:33,0.05,3.36,0.00,19.99,24.70,28.52,14.58,46.75,1004.05,2042.96,2455.32,2395.00,2624.73,599.67,594.39,40.56,0000 0000 0000 0000 000000
2015-11-02 02:05:35,0.05,3.37,0.00,20.00,24.70,28.52,14.50,46.58,1004.06,2042.94,2454.86,2394.43,2624.02,599.68,594.41,40.61,0000 0000 0000 0000 000000
2015-11-02 02:10:36,0.04,3.37,0.00,20.00,24.70,28.56,14.62,46.51,1003.98,2042.97,2454.07,2394.00,2623.65,600.33,594.98,40.66,0000 0000 0000 0000 000000
2015-11-02 02:15:37,0.04,3.37,0.00,20.01,24.69,28.55,14.52,46.63,1004.02,2042.96,2453.78,2393.70,2623.03,599.82,594.43,40.71,0000 0000 0000 0000 000000
2015-11-02 02:20:38,0.03,3.37,0.00,20.02,24.69,28.55,14.45,46.55,1004.00,2042.97,2453.03,2393.02,2622.92,599.84,594.45,40.77,0000 0000 0000 0000 000000
2015-11-02 02:25:40,0.06,3.38,0.00,20.02,24.69,28.52,14.56,46.90,1003.93,2042.95,2452.46,2392.57,2622.12,600.00,594.56,40.82,0000 0000 0000 0000 000000
2015-11-02 02:30:41,0.04,3.38,0.00,20.01,24.68,28.51,14.56,46.76,1003.94,2042.94,2451.57,2392.01,2621.72,599.87,594.46,40.87,0000 0000 0000 0000 000000
2015-11-02 02:35:43,0.03,3.38,0.00,20.02,24.67,28.50,14.49,46.66,1003.95,2042.97,2451.03,2391.85,2621.04,600.07,594.67,40.92,0000 0000 0000 0000 000000
2015-11-02 02:40:44,0.05,3.38,0.00,20.02,24.67,28.50,14.61,46.65,1003.95,2042.97,2450.47,2391.08,2620.86,599.75,594.39,40.97,0000 0000 0000 0000 000000
2015-11-02 02:45:45,0.03,3.39,0.00,20.02,24.67,28.56,14.66,46.79,1003.98,2042.97,2449.97,2390.91,2620.09,600.48,595.09,41.02,0000 0000 0000 0000 000000
2015-11-02 02:50:46,0.05,3.39,0.00,20.02,24.67,28.54,14.56,46.63,1004.00,2042.93,2449.32,2390.13,2619.88,600.16,594.66,41.07,0000 0000 0000 0000 000000
2015-11-02 02:55:48,0.03,3.39,0.00,20.02,24.67,28.49,14.62,46.68,1004.17,2042.93,2448.68,2389.96,2619.08,600.31,594.85,41.12,0000 0000 0000 0000 000000
2015-11-02 03:00:49,0.05,3.39,0.00,20.03,24.67,28.53,14.52,46.52,1004.27,2042.97,2448.02,2389.17,2618.92,599.56,594.27,41.17,0000 0000 0000 0000 000000
2015-11-02 03:05:50,0.02,3.39,0.00,20.03,24.67,28.57,14.54,46.81,1004.23,2042.96,2447.92,2389.00,2618.13,599.97,594.72,41.22,0000 0000 0000 0000 000000
2015-11-02 03:10:52,0.04,3.40,0.00,20.02,24.67,28.55,14.54,46.73,1004.38,2042.95,2447.19,2388.75,2617.96,600.25,595.15,41.27,0000 0000 0000 0000 000000
2015-11-02 03:15:53,0.06,3.40,0.00,20.02,24.66,28.53,14.59,46.81,1004.40,2042.94,2446.50,2388.03,2617.17,599.93,594.57,41.32,0000 0000 0000 0000 000000
2015-11-02 03:20:54,0.05,3.40,0.00,20.02,24.65,28.54,14.59,46.76,1004.38,2042.96,2445.69,2387.67,2616.92,600.05,594.89,41.37,0000 0000 0000 0000 000000
2015-11-02 03:25:56,0.04,3.40,0.00,20.03,24.65,28.49,14.62,46.87,1004.40,2042.98,2445.03,2387.03,2616.18,600.24,594.96,41.42,0000 0000 0000 0000 000000
2015-11-02 03:30:57,0.02,3.41,0.00,20.03,24.65,28.52,14.58,46.83,1004.40,2042.99,2444.51,2386.94,2615.99,599.93,594.69,41.47,0000 0000 0000 0000 000000
2015-11-02 03:35:58,0.05,3.41,0.00,20.04,24.65,28.58,14.54,46.66,1004.39,2042.96,2444.00,2386.19,2615.38,599.79,594.62,41.52,0000 0000 0000 0000 000000
2015-11-02 03:40:59,0.03,3.41,0.00,20.03,24.65,28.52,14.57,46.62,1004.38,2042.97,2443.31,2385.98,2615.00,600.28,595.09,41.57,0000 0000 0000 0000 000000
2015-11-02 03:46:01,0.06,3.41,0.00,20.03,24.65,28.55,14.56,46.62,1004.39,2042.98,2442.88,2385.37,2614.44,600.15,594.94,41.62,0000 0000 0000 0000 000000
2015-11-02 03:51:02,0.03,3.42,0.00,20.04,24.65,28.49,14.57,46.54,1004.40,2042.99,2442.07,2385.01,2614.00,599.81,594.69,41.67,0000 0000 0000 0000 000000
2015-11-02 03:56:04,0.05,3.42,0.00,20.03,24.65,28.50,14.59,46.64,1004.40,2042.99,2441.65,2384.68,2613.49,599.96,594.73,41.73,0000 0000 0000 0000 000000
2015-11-02 04:01:05,0.03,3.42,0.00,20.04,24.65,28.52,14.50,46.58,1004.40,2042.99,2441.01,2384.02,2613.01,599.81,594.70,41.78,0000 0000 0000 0000 000000
2015-11-02 04:06:06,0.00,3.42,0.00,20.04,24.66,28.51,14.58,46.42,1004.41,2042.99,2441.00,2384.00,2612.96,600.10,594.96,41.83,0000 0000 0000 0000 000000
2015-11-02 04:11:08,0.06,3.42,0.00,20.06,24.67,28.52,14.58,46.50,1004.41,2042.98,2440.46,2383.64,2612.19,600.13,594.95,41.88,0000 0000 0000 0000 000000
2015-11-02 04:16:09,0.02,3.42,0.00,20.07,24.67,28.49,14.55,46.55,1004.41,2042.97,2439.99,2383.05,2611.99,600.28,594.97,41.93,0000 0000 0000 0000 000000
2015-11-02 04:21:10,0.04,3.43,0.00,20.07,24.67,28.46,14.57,46.58,1004.41,2042.96,2439.26,2382.94,2611.37,599.82,594.58,41.98,0000 0000 0000 0000 000000
2015-11-02 04:26:11,0.04,3.43,0.00,20.08,24.68,28.52,14.55,46.47,1004.41,2042.99,2438.89,2382.19,2611.01,599.70,594.55,42.03,0000 0000 0000 0000 000000
2015-11-02 04:31:13,0.04,3.43,0.00,20.07,24.69,28.47,14.56,46.51,1004.42,2042.98,2438.05,2381.94,2610.50,600.23,594.96,42.08,0000 0000 0000 0000 000000
2015-11-02 04:36:14,0.04,3.43,0.00,20.07,24.70,28.47,14.64,46.50,1004.43,2042.98,2437.66,2381.25,2610.01,600.14,594.91,42.13,0000 0000 0000 0000 000000
2015-11-02 04:41:15,0.02,3.43,0.00,20.08,24.70,28.57,14.53,46.28,1004.43,2042.98,2437.05,2381.01,2609.93,599.71,594.46,42.18,0000 0000 0000 0000 000000
2015-11-02 04:46:16,0.02,3.44,0.00,20.09,24.70,28.51,14.53,45.84,1004.43,2042.98,2437.01,2380.98,2609.23,599.99,594.66,42.23,0000 0000 0000 0000 000000
2015-11-02 04:51:18,0.02,3.44,0.00,20.09,24.72,28.52,14.58,46.23,1004.55,2042.96,2436.90,2380.67,2609.01,600.18,594.96,42.28,0000 0000 0000 0000 000000
2015-11-02 04:56:19,0.03,3.44,0.00,20.09,24.72,28.55,14.58,46.06,1004.59,2042.92,2436.49,2380.04,2608.87,599.66,594.47,42.33,0000 0000 0000 0000 000000
2015-11-02 05:01:20,0.02,3.44,0.00,20.09,24.72,28.52,14.59,46.09,1004.62,2042.86,2436.04,2379.96,2608.15,600.09,594.81,42.38,0000 0000 0000 0000 000000
2015-11-02 05:06:21,0.04,3.44,0.00,20.09,24.74,28.56,14.48,45.81,1004.88,2042.58,2435.37,2379.15,2607.69,599.73,594.69,42.43,0000 0000 0000 0000 000000
2015-11-02 05:11:23,0.03,3.44,0.00,20.09,24.75,28.49,14.51,45.79,1004.87,2042.42,2434.56,2378.83,2607.02,599.77,594.75,42.48,0000 0000 0000 0000 000000
2015-11-02 05:16:24,0.09,3.45,0.00,20.09,24.75,28.48,14.49,46.02,1004.89,2042.74,2433.97,2378.11,2606.69,600.01,595.04,42.53,0000 0000 0000 0000 000000
2015-11-02 05:21:25,0.02,3.45,0.00,20.09,24.75,28.57,14.56,46.00,1004.89,2042.81,2433.46,2378.00,2606.05,600.30,595.29,42.58,0000 0000 0000 0000 000000
2015-11-02 05:26:27,0.04,3.45,0.00,20.09,24.75,28.57,14.58,46.03,1004.89,2042.81,2432.97,2377.67,2605.95,599.94,595.05,42.63,0000 0000 0000 0000 000000
2015-11-02 05:31:28,0.05,3.45,0.00,20.10,24.75,28.52,14.54,45.98,1004.89,2042.79,2432.20,2377.03,2605.31,600.06,595.08,42.68,0000 0000 0000 0000 000000
2015-11-02 05:36:29,-0.00,3.45,0.00,20.09,24.75,28.56,14.61,45.90,1004.90,2042.73,2432.00,2376.99,2605.01,600.10,595.09,42.74,0000 0000 0000 0000 000000
2015-11-02 05:41:30,0.03,3.45,0.00,20.09,24.75,28.52,14.58,45.92,1004.90,2042.46,2431.49,2376.41,2604.70,600.25,595.20,42.79,0000 0000 0000 0000 000000
2015-11-02 05:46:32,0.02,3.46,0.00,20.09,24.75,28.52,14.57,45.82,1004.90,2042.31,2431.00,2376.00,2604.04,600.30,595.36,42.84,0000 0000 0000 0000 000000
2015-11-02 05:51:33,0.03,3.46,0.00,20.09,24.75,28.57,14.53,45.91,1004.90,2042.56,2430.96,2375.98,2603.99,599.53,594.54,42.89,0000 0000 0000 0000 000000
2015-11-02 05:56:34,-0.01,3.46,0.00,20.08,24.75,28.53,14.48,46.06,1004.90,2042.22,2430.83,2375.69,2603.74,599.79,594.92,42.94,0000 0000 0000 0000 000000
2015-11-02 06:01:35,0.04,3.46,0.00,20.07,24.75,28.59,14.57,45.88,1004.91,2042.15,2430.07,2375.06,2603.06,599.95,595.12,42.99,0000 0000 0000 0000 000000
2015-11-02 06:06:36,0.02,3.46,0.00,20.07,24.75,28.61,14.58,45.94,1004.90,2042.18,2429.91,2374.99,2602.98,600.16,595.14,43.04,0000 0000 0000 0000 000000
2015-11-02 06:11:37,0.05,3.46,0.00,20.07,24.75,28.61,14.53,45.88,1004.91,2042.12,2429.42,2374.58,2602.41,600.38,595.33,43.09,0000 0000 0000 0000 000000
2015-11-02 06:16:39,0.01,3.46,0.00,20.07,24.75,28.61,14.58,46.00,1004.91,2042.07,2429.01,2374.03,2602.01,600.05,595.04,43.14,0000 0000 0000 0000 000000
2015-11-02 06:21:40,0.04,3.47,0.00,20.07,24.75,28.60,14.54,45.95,1004.92,2042.07,2428.24,2373.92,2601.76,600.05,595.03,43.19,0000 0000 0000 0000 000000
2015-11-02 06:26:42,0.05,3.47,0.00,20.07,24.75,28.58,14.57,45.82,1004.92,2042.06,2427.75,2373.16,2601.05,599.83,594.97,43.24,0000 0000 0000 0000 000000
2015-11-02 06:31:43,0.02,3.47,0.00,20.07,24.75,28.56,14.57,45.77,1004.91,2042.12,2427.03,2373.00,2600.96,600.08,594.92,43.29,0000 0000 0000 0000 000000
2015-11-02 06:36:45,0.02,3.47,0.00,20.09,24.75,28.56,14.61,45.78,1004.95,2042.21,2426.98,2372.98,2600.52,600.10,595.07,43.34,0000 0000 0000 0000 000000
2015-11-02 06:41:46,0.04,3.47,0.00,20.09,24.75,28.60,14.49,45.77,1005.04,2042.11,2426.35,2372.30,2600.04,599.57,594.71,43.39,0000 0000 0000 0000 000000
2015-11-02 06:46:47,0.01,3.47,0.00,20.09,24.75,28.57,14.52,45.80,1005.01,2042.11,2426.00,2372.00,2599.96,599.67,594.72,43.44,0000 0000 0000 0000 000000
2015-11-02 06:51:48,0.02,3.48,0.00,20.08,24.75,28.52,14.54,45.71,1005.03,2042.12,2425.97,2371.98,2599.37,600.08,595.22,43.49,0000 0000 0000 0000 000000
2015-11-02 06:56:50,0.05,3.48,0.00,20.07,24.75,28.56,14.54,45.88,1005.24,2042.08,2425.40,2371.52,2599.01,599.78,595.03,43.54,0000 0000 0000 0000 000000
2015-11-02 07:01:51,0.02,3.48,0.00,20.07,24.75,28.53,14.55,45.98,1005.37,2042.10,2424.98,2371.03,2598.92,599.82,595.03,43.59,0000 0000 0000 0000 000000
2015-11-02 07:06:52,0.04,3.48,0.00,20.07,24.75,28.57,14.57,45.90,1005.38,2042.10,2424.21,2370.97,2598.19,599.97,595.34,43.65,0000 0000 0000 0000 000000
2015-11-02 07:11:54,0.04,3.48,0.00,20.07,24.75,28.50,14.55,45.92,1005.37,2042.15,2423.98,2370.39,2598.00,600.25,595.72,43.70,0000 0000 0000 0000 000000
2015-11-02 07:16:55,0.03,3.48,0.00,20.07,24.75,28.47,14.51,46.00,1005.39,2042.21,2423.66,2370.02,2597.82,599.87,595.32,43.75,0000 0000 0000 0000 000000
2015-11-02 07:21:56,0.01,3.49,0.00,20.01,24.75,28.50,14.57,45.94,1005.39,2042.13,2423.11,2369.98,2597.12,600.07,595.65,43.80,0000 0000 0000 0000 000000
2015-11-02 07:26:58,0.03,3.49,0.00,19.91,24.75,28.54,14.58,46.25,1005.39,2042.05,2422.87,2369.40,2596.99,600.07,595.75,43.85,0000 0000 0000 0000 000000
2015-11-02 07:31:59,0.04,3.49,0.00,19.85,24.73,28.55,14.51,46.12,1005.39,2042.06,2422.13,2369.01,2596.43,600.00,595.91,43.90,0000 0000 0000 0000 000000
2015-11-02 07:37:00,0.04,3.49,0.00,19.81,24.72,28.58,14.53,46.01,1005.39,2042.07,2421.54,2368.76,2595.99,599.52,595.39,43.95,0000 0000 0000 0000 000000
2015-11-02 07:42:01,0.04,3.49,0.00,19.77,24.71,28.60,14.66,46.33,1005.39,2042.09,2421.01,2368.08,2595.63,600.67,596.54,44.00,0000 0000 0000 0000 000000
2015-11-02 07:47:02,0.03,3.50,0.00,19.74,24.70,28.58,14.56,46.24,1005.39,2042.12,2420.46,2367.94,2595.03,600.19,596.28,44.05,0000 0000 0000 0000 000000
2015-11-02 07:52:04,0.06,3.50,0.00,19.72,24.68,28.53,14.54,46.17,1005.40,2042.16,2419.87,2367.35,2594.73,600.19,596.19,44.10,0000 0000 0000 0000 000000
2015-11-02 07:57:05,0.05,3.50,0.00,19.71,24.66,28.50,14.63,46.41,1005.41,2042.33,2419.12,2367.01,2594.06,600.35,596.53,44.15,0000 0000 0000 0000 000000
2015-11-02 08:02:07,0.06,3.50,0.00,19.71,24.65,28.51,14.60,46.49,1005.41,2042.60,2418.47,2366.97,2593.94,599.70,595.80,44.20,0000 0000 0000 0000 000000
2015-11-02 08:07:08,0.06,3.51,0.00,19.70,24.62,28.46,14.55,46.47,1005.41,2042.82,2417.94,2366.47,2593.29,599.55,595.78,44.25,0000 0000 0000 0000 000000
2015-11-02 08:12:09,0.05,3.51,0.00,19.69,24.61,28.46,14.59,46.39,1005.44,2042.96,2417.15,2366.02,2593.00,599.99,596.13,44.30,0000 0000 0000 0000 000000
2015-11-02 08:17:10,0.00,3.51,0.00,19.70,24.59,28.42,14.57,46.47,1005.43,2042.98,2416.99,2365.99,2592.95,599.37,595.49,44.35,0000 0000 0000 0000 000000
2015-11-02 08:22:12,0.05,3.51,0.00,19.72,24.57,28.40,14.53,46.25,1005.45,2042.99,2416.59,2365.78,2592.40,599.51,595.53,44.40,0000 0000 0000 0000 000000
2015-11-02 08:27:13,0.03,3.52,0.00,19.71,24.56,28.41,14.62,46.17,1005.51,2042.99,2416.02,2365.09,2592.01,599.82,596.04,44.45,0000 0000 0000 0000 000000
2015-11-02 08:32:15,0.00,3.52,0.00,19.71,24.55,28.36,14.60,46.24,1005.57,2042.99,2415.90,2365.00,2591.97,600.25,596.43,44.50,0000 0000 0000 0000 000000
2015-11-02 08:37:16,0.06,3.52,0.00,19.70,24.52,28.38,14.52,46.18,1005.55,2042.99,2415.09,2364.69,2591.23,599.73,596.05,44.55,0000 0000 0000 0000 000000
2015-11-02 08:42:17,0.04,3.52,0.00,19.69,24.52,28.37,14.59,46.22,1005.51,2042.99,2414.41,2364.04,2590.99,599.52,595.71,44.60,0000 0000 0000 0000 000000
2015-11-02 08:47:18,0.02,3.52,0.00,19.69,24.50,28.39,14.54,46.34,1005.44,2042.99,2414.05,2363.99,2590.53,599.75,595.86,44.66,0000 0000 0000 0000 000000
2015-11-02 08:52:19,0.04,3.52,0.00,19.69,24.50,28.35,14.59,46.45,1005.47,2042.99,2413.67,2363.61,2590.02,599.87,596.08,44.71,0000 0000 0000 0000 000000
2015-11-02 08:57:20,0.02,3.53,0.00,19.69,24.48,28.33,14.57,46.36,1005.55,2042.99,2413.00,2363.01,2589.91,599.98,596.07,44.76,0000 0000 0000 0000 000000
2015-11-02 09:02:22,0.04,3.53,0.00,19.68,24.47,28.33,14.59,46.34,1005.62,2043.00,2412.45,2362.96,2589.25,600.11,596.46,44.81,0000 0000 0000 0000 000000
2015-11-02 09:07:23,0.03,3.53,0.00,19.67,24.46,28.32,14.60,46.37,1005.64,2043.00,2412.00,2362.26,2589.00,600.04,596.31,44.86,0000 0000 0000 0000 000000
2015-11-02 09:12:24,0.03,3.53,0.00,19.67,24.45,28.30,14.60,46.39,1005.69,2043.05,2411.61,2362.01,2588.85,600.36,596.70,44.91,0000 0000 0000 0000 000000
2015-11-02 09:17:26,0.02,3.53,0.00,19.66,24.45,28.33,14.60,46.30,1005.74,2043.08,2411.04,2361.99,2588.17,599.71,595.97,44.96,0000 0000 0000 0000 000000
2015-11-02 09:22:27,0.01,3.54,0.00,19.64,24.42,28.33,14.53,46.33,1005.73,2043.14,2411.00,2361.93,2588.01,599.61,595.96,45.01,0000 0000 0000 0000 000000
2015-11-02 09:27:29,0.03,3.54,0.00,19.64,24.42,28.27,14.60,46.40,1005.57,2043.06,2410.82,2361.38,2587.96,599.63,595.97,45.06,0000 0000 0000 0000 000000
2015-11-02 09:32:30,0.05,3.54,0.00,19.64,24.41,28.32,14.61,46.26,1005.55,2043.11,2410.04,2361.00,2587.24,600.11,596.44,45.11,0000 0000 0000 0000 000000
2015-11-02 09:37:31,0.04,3.54,0.00,19.63,24.40,28.27,14.60,46.39,1005.49,2043.31,2409.80,2360.94,2587.00,599.91,596.19,45.16,0000 0000 0000 0000 000000
2015-11-02 09:42:32,0.06,3.54,0.00,19.62,24.39,28.28,14.60,46.45,1005.55,2043.66,2409.28,2360.56,2586.98,600.40,596.80,45.21,0000 0000 0000 0000 000000
2015-11-02 09:47:34,0.09,3.55,0.00,19.62,24.37,28.26,14.66,46.43,1005.46,2043.89,2408.60,2360.04,2586.31,600.17,596.37,45.26,0000 0000 0000 0000 000000
2015-11-02 09:52:35,0.01,3.55,0.00,19.61,24.37,28.25,14.67,46.42,1005.43,2043.94,2408.01,2359.99,2586.01,600.14,596.35,45.31,0000 0000 0000 0000 000000
2015-11-02 09:57:37,0.02,3.55,0.00,19.59,24.35,28.26,14.58,46.30,1005.44,2043.97,2408.00,2359.69,2585.98,599.78,596.06,45.36,0000 0000 0000 0000 000000
2015-11-02 10:02:38,0.05,3.55,0.00,19.59,24.35,28.23,14.60,46.20,1005.62,2043.97,2407.63,2359.08,2585.30,600.04,596.55,45.41,0000 0000 0000 0000 000000
2015-11-02 10:07:39,0.01,3.55,0.00,19.58,24.34,28.22,14.62,46.42,1005.72,2043.97,2407.13,2359.00,2585.01,600.10,596.62,45.46,0000 0000 0000 0000 000000
2015-11-02 10:12:41,0.03,3.55,0.00,19.58,24.32,28.21,14.59,46.26,1005.76,2043.96,2406.73,2358.76,2584.95,600.35,596.90,45.51,0000 0000 0000 0000 000000
2015-11-02 10:17:42,0.05,3.56,0.00,19.57,24.32,28.18,14.54,46.18,1005.84,2043.98,2406.07,2358.10,2584.23,599.77,596.31,45.56,0000 0000 0000 0000 000000
2015-11-02 10:22:43,0.00,3.56,0.00,19.57,24.30,28.19,14.63,46.27,1005.82,2043.99,2406.00,2358.00,2584.02,600.10,596.72,45.62,0000 0000 0000 0000 000000
2015-11-02 10:27:44,0.01,3.56,0.00,19.57,24.30,28.14,14.53,46.34,1005.86,2043.99,2405.63,2357.97,2583.98,599.98,596.60,45.67,0000 0000 0000 0000 000000
2015-11-02 10:32:45,0.04,3.56,0.00,19.55,24.28,28.18,14.63,46.48,1005.77,2043.99,2405.21,2357.65,2583.54,599.88,596.50,45.72,0000 0000 0000 0000 000000
2015-11-02 10:37:47,0.02,3.56,0.00,19.54,24.27,28.17,14.58,46.35,1005.79,2043.99,2405.02,2357.11,2583.05,599.88,596.57,45.77,0000 0000 0000 0000 000000
2015-11-02 10:42:48,0.02,3.56,0.00,19.52,24.26,28.12,14.50,46.23,1005.87,2043.99,2404.32,2356.99,2582.98,599.48,596.21,45.82,0000 0000 0000 0000 000000
2015-11-02 10:47:49,0.01,3.57,0.00,19.52,24.25,28.16,14.59,46.39,1005.87,2043.99,2404.00,2356.93,2582.66,599.86,596.50,45.87,0000 0000 0000 0000 000000
2015-11-02 10:52:50,0.04,3.57,0.00,19.51,24.24,28.14,14.63,46.52,1005.87,2043.99,2403.84,2356.41,2582.15,600.48,597.27,45.92,0000 0000 0000 0000 000000
2015-11-02 10:57:51,0.03,3.57,0.00,19.50,24.22,28.12,14.59,46.39,1005.86,2044.00,2403.08,2356.01,2582.00,600.31,597.11,45.97,0000 0000 0000 0000 000000
2015-11-02 11:02:53,0.01,3.57,0.00,19.49,24.22,28.11,14.60,46.52,1005.87,2044.00,2402.93,2355.99,2581.74,600.03,596.93,46.02,0000 0000 0000 0000 000000
2015-11-02 11:07:54,0.06,3.57,0.00,19.48,24.20,28.17,14.55,46.45,1005.85,2044.01,2402.28,2355.54,2581.07,599.74,596.58,46.07,0000 0000 0000 0000 000000
2015-11-02 11:12:55,0.01,3.57,0.00,19.48,24.20,28.09,14.51,46.41,1005.86,2044.00,2402.00,2355.04,2581.00,599.86,596.64,46.12,0000 0000 0000 0000 000000
2015-11-02 11:17:56,0.03,3.58,0.00,19.47,24.18,28.13,14.64,46.56,1005.84,2044.01,2401.58,2355.00,2580.75,600.18,596.79,46.17,0000 0000 0000 0000 000000
2015-11-02 11:22:57,0.03,3.58,0.00,19.45,24.17,28.09,14.53,46.35,1005.82,2044.03,2401.07,2354.89,2580.11,599.46,596.29,46.22,0000 0000 0000 0000 000000
2015-11-02 11:27:59,0.03,3.58,0.00,19.44,24.17,28.05,14.58,46.42,1005.86,2044.04,2400.98,2354.19,2580.00,600.28,597.18,46.27,0000 0000 0000 0000 000000
2015-11-02 11:33:01,0.02,3.58,0.00,19.43,24.15,28.12,14.63,46.58,1005.86,2044.05,2400.49,2354.00,2579.88,599.88,596.71,46.32,0000 0000 0000 0000 000000
2015-11-02 11:38:02,0.02,3.58,0.00,19.42,24.15,28.08,14.55,46.37,1005.87,2044.07,2400.07,2353.95,2579.29,599.66,596.58,46.37,0000 0000 0000 0000 000000
2015-11-02 11:43:03,0.07,3.59,0.00,19.41,24.13,28.05,14.64,46.49,1005.87,2044.23,2399.49,2353.18,2579.00,599.94,596.90,46.42,0000 0000 0000 0000 000000
2015-11-02 11:48:05,0.05,3.59,0.00,19.39,24.12,28.03,14.59,46.31,1005.87,2044.60,2399.02,2353.01,2578.88,599.96,596.97,46.47,0000 0000 0000 0000 000000
2015-11-02 11:53:06,0.03,3.59,0.00,19.39,24.12,28.04,14.56,46.52,1005.87,2044.50,2398.67,2352.92,2578.14,599.62,596.62,46.52,0000 0000 0000 0000 000000
2015-11-02 11:58:07,0.07,3.59,0.00,19.37,24.11,28.03,14.74,46.68,1005.87,2044.86,2398.01,2352.37,2578.00,600.26,597.31,46.57,0000 0000 0000 0000 000000
2015-11-02 12:03:08,0.01,3.59,0.00,19.37,24.10,28.03,14.62,46.57,1005.86,2044.90,2397.96,2352.02,2577.85,599.95,597.18,46.62,0000 0000 0000 0000 000000
2015-11-02 12:08:09,0.04,3.60,0.00,19.37,24.10,28.00,14.67,46.45,1005.85,2044.96,2397.39,2351.99,2577.12,599.91,596.96,46.68,0000 0000 0000 0000 000000
2015-11-02 12:13:11,0.03,3.60,0.00,19.36,24.10,28.00,14.64,46.29,1005.85,2044.96,2396.98,2351.51,2576.98,600.14,597.19,46.73,0000 0000 0000 0000 000000
2015-11-02 12:18:13,0.02,3.60,0.00,19.35,24.09,28.02,14.58,46.48,1005.86,2044.93,2396.58,2351.05,2576.66,599.85,596.95,46.78,0000 0000 0000 0000 000000
2015-11-02 12:23:14,0.03,3.60,0.00,19.34,24.07,27.98,14.65,46.42,1005.82,2044.95,2396.03,2350.99,2576.06,599.97,596.94,46.83,0000 0000 0000 0000 000000
2015-11-02 12:28:15,0.00,3.60,0.00,19.33,24.07,28.03,14.62,46.36,1005.82,2044.95,2395.99,2350.96,2576.00,600.07,597.12,46.88,0000 0000 0000 0000 000000
2015-11-02 12:33:16,0.07,3.60,0.00,19.32,24.07,27.99,14.55,46.43,1005.78,2044.95,2395.56,2350.21,2575.62,599.71,596.81,46.93,0000 0000 0000 0000 000000
2015-11-02 12:38:17,0.02,3.61,0.00,19.31,24.05,27.97,14.65,46.48,1005.86,2044.95,2395.00,2350.00,2575.03,599.92,597.07,46.98,0000 0000 0000 0000 000000
2015-11-02 12:43:18,0.03,3.61,0.00,19.29,24.05,27.94,14.61,46.47,1005.82,2044.97,2394.45,2349.77,2574.98,599.80,596.81,47.03,0000 0000 0000 0000 000000
2015-11-02 12:48:19,0.05,3.61,0.00,19.29,24.03,27.95,14.64,46.63,1005.82,2044.97,2393.97,2349.11,2574.30,600.08,597.19,47.08,0000 0000 0000 0000 000000
2015-11-02 12:53:20,0.02,3.61,0.00,19.27,24.02,27.93,14.57,46.47,1005.85,2044.98,2393.19,2348.99,2574.00,599.22,596.53,47.13,0000 0000 0000 0000 000000